Location: ??????????
(31.2156°N, 29.9553°E)
Time: 04:37:42
(UTC+00:00)

CZ-4 R/B - Pass Details

Date: 03 March 2021
Orbit: 532 x 597 km, 97.7° (Epoch: 14 April)

Event Time Altitude Azimuth Distance (km) Brightness Sun altitude
Rises 16:22:32 0° 152° (SSE) 2,660 4.6 -5.6°
Reaches altitude 10° 16:24:42 10° 145° (SE) 1,775 3.6 -6.1°
Maximum altitude 16:28:19 41° 75° (ENE) 780 1.6 -6.9°
Drops below altitude 10° 16:31:58 10° 4° (N) 1,799 3.9 -7.6°
Sets 16:34:10 0° 357° (N) 2,702 4.9 -8.1°
